[[{"header":{"parameterUnit":"m.s-1","parameterCategory":1,"la1":30.2991,"la2":30.254,"lo1":-89.0895,"lo2":-89.0444,"dy":0.0017,"dx":0.0017,"nx":28,"ny":28,"refTime":"2023-09-20T03:00:00:Z","depth":0,"parameterNumber":2,"parameterNumberName":"U-component_of_WINDS"},"data":[0,0,0,0,0,0,0,0,0,0,0,0,0,0,0,0,0,0,0,0,0,0,0,0,0,0,0,0,0,0,0,0,0,0,0,0,0,0,0,0,0,0,0,0,0,0,0,0,0,0,0,0,0,0,0,0,0,0,-6.8011,-6.8012,0,-6.8095,-6.8096,-6.8097,-6.7986,-6.7982,-6.7978,-6.7975,-6.8057,-6.8063,-6.8069,0,0,0,0,0,0,0,0,0,0,0,0,0,-6.7752,-6.7758,-6.8011,-6.8012,-6.8013,-6.8095,-6.8096,-6.8097,-6.7987,-6.7982,-6.7977,-6.7973,-6.8055,-6.8062,-6.8069,0,0,0,0,0,0,0,0,0,0,0,0,0,-6.7853,-6.776,-6.8011,-6.7968,-6.7965,-6.8094,-6.8096,-6.8097,-6.7988,-6.7982,-6.7976,-6.797,-6.8053,-6.8061,-6.807,-6.8244,0,0,-6.8097,-6.8101,0,0,0,0,0,0,0,0,-6.7848,-6.7863,-6.7973,-6.7971,-6.7968,-6.8024,-6.8035,-6.8146,-6.7989,-6.7979,-6.7974,-6.7968,-6.8051,-6.8059,-6.8088,-6.8248,-6.8251,-6.8098,-6.8103,-6.8107,-6.811,0,0,0,0,0,0,0,-6.7841,-6.7859,-6.8044,-6.7975,-6.7972,-6.7944,-6.7951,-6.8055,-6.8047,-6.798,-6.7972,-6.7983,-6.8048,-6.808,-6.8089,-6.8253,-6.8098,-6.8105,-6.8111,-6.8114,-6.8557,-6.8563,0,0,0,0,0,0,-6.7839,-6.7854,-6.8041,-6.8046,-6.7892,-6.7953,-6.7962,-6.8012,-6.8046,-6.8045,-6.7988,-6.7978,-6.8067,-6.8079,-6.8092,-6.8294,-6.8107,-6.8115,-6.812,-6.8551,-6.8559,-6.8566,0,0,0,0,0,0,-6.7834,-6.7857,-6.8038,-6.7948,-6.7969,-6.7964,-6.8021,-6.8017,-6.8048,-6.8053,-6.805,-6.8022,-6.8063,-6.8079,-6.8207,-6.8296,-6.8119,-6.8127,-6.8543,-6.8553,-6.8562,-6.8704,0,0,0,0,0,0,-6.7827,-6.7856,-6.7923,-6.795,-6.7974,-6.8153,-6.8027,-6.8023,-6.8064,-6.8051,-6.8084,-6.8083,-6.806,-6.8194,-6.8215,-6.8305,-6.8134,-6.8535,-6.8548,-6.8559,-6.8691,-6.8717,-6.8739,0,0,0,0,0,-6.7818,-6.7959,-6.7927,-6.795,-6.8057,-6.8158,-6.8171,-6.8142,-6.8072,-6.8138,-6.8141,-6.8082,-6.8284,-6.8208,-6.8231,-6.8325,-6.8529,-6.8544,-6.8558,-6.868,-6.8712,-6.8739,0,0,0,0,0,0,-6.794,-6.7962,-6.7926,-6.808,-6.8118,-6.8139,-6.8221,-6.8177,-6.8235,-6.8221,-6.8182,-6.819,-6.8325,-6.8339,-6.8253,-6.8494,-6.8395,-6.8415,-6.8479,-6.851,-6.8533,-6.8525,-6.8142,0,0,0,0,0,-6.7986,-6.8067,-6.8081,-6.8215,-6.8236,-6.8226,-6.8269,-6.8244,-6.8281,-6.8296,-6.8308,-6.8346,-6.8417,-6.8465,-6.8531,-6.8694,-6.8698,-6.877,-6.8794,-6.8814,-6.883,-6.8914,-6.8946,-6.8613,-6.8613,-6.8613,0,0,-6.8078,-6.81,-6.8153,-6.824,-6.8266,-6.8349,-6.824,-6.8333,-6.8393,-6.831,-6.843,-6.8441,-6.8481,-6.8626,-6.869,-6.8641,-6.8924,-6.8833,-6.8849,-6.8853,-6.8933,-6.8964,-6.8992,-6.8623,-6.8621,-6.862,0,0,-6.8289,-6.8316,-6.8429,-6.8459,-6.8501,-6.8494,-6.8521,-6.855,-6.8554,-6.8675,-6.8613,-6.8685,-6.881,-6.884,-6.8871,-6.9096,-6.9043,-6.9119,-6.9243,-6.9326,-6.9352,-6.9375,-6.9452,-6.948,-6.9136,-6.9137,-6.9137,0,-6.8399,-6.8522,-6.8493,-6.859,-6.8628,-6.8559,-6.8672,-6.8702,-6.8764,-6.8791,-6.8736,-6.8891,-6.8913,-6.9062,-6.9117,-6.9147,-6.9175,-6.9112,-6.9352,-6.9374,-6.9395,-6.9467,-6.9497,-6.9145,-6.9144,-6.9143,-6.9143,0,-6.8653,-6.874,-6.8827,-6.8888,-6.8938,-6.9043,-6.9027,-6.9081,-6.9053,-6.9051,-6.9174,-6.9199,-6.9268,-6.9303,-6.9276,-6.9449,-6.9417,-6.9358,-6.9256,-6.9436,-6.9503,-6.9531,-6.9158,-6.9155,-6.9152,-6.915,0,0,-6.8939,-6.8984,-6.9016,-6.9042,-6.9085,-6.9151,-6.9253,-6.9322,-6.9366,-6.9413,-6.9495,-6.9604,-6.9549,-6.9585,-6.9561,-6.9635,-6.9807,-6.9566,-6.9566,-6.9606,-6.9996,-7.0036,-7.0069,-6.9775,-6.978,-6.9785,-6.9991,0,-6.9146,-6.9322,-6.9299,-6.9467,-6.9545,-6.9482,-6.957,-6.9606,-6.9608,-6.9674,-6.9676,-6.9752,-6.9676,-6.9697,-6.9768,-6.9771,-6.9884,-6.9757,-6.9848,-6.9851,-6.9835,-7.0105,-7.0148,-7.0342,-7.0018,-7.0022,-7.0025,0,-6.9411,-6.9466,-6.9643,-6.9672,-6.9704,-6.9784,-6.9844,-6.991,-6.9948,-6.9945,-6.9987,-6.995,-7.005,-6.9952,-7.0089,-7.0003,-7.0039,-7.0047,-7.0054,-7.0057,-6.9945,-7.0111,-7.0403,-7.043,-7.0067,-7.0064,-7.0061,0,-6.9596,-6.9716,-6.9835,-6.9861,-6.99,-6.9957,-6.9976,-7.0009,-7.0051,-7.0105,-7.0131,-7.0197,-7.0231,-7.0282,-7.0263,-7.0194,-7.0403,-7.0303,-7.04,-7.04,-7.0442,-7.0438,-7.0739,-7.0475,-7.0474,-7.0474,-7.0473,0,-6.9827,-6.9936,-6.9919,-6.9992,-7.0112,-7.0086,-7.0205,-7.0216,-7.0246,-7.032,-7.0271,-7.034,-7.0314,-7.0382,-7.0369,-7.0483,-7.05,-7.0498,-7.0492,-7.0499,-7.0499,-7.0519,-7.0503,-7.0481,-7.048,-7.0478,-7.0477,0,-7.0051,-7.0045,-7.0171,-7.0198,-7.0208,-7.0295,-7.0317,-7.0385,-7.0385,-7.0479,-7.0499,-7.0498,-7.0576,-7.0564,-7.0651,-7.0642,-7.0782,-7.0762,-7.0769,-7.0762,-7.0858,-7.0847,-7.1178,-7.1218,-7.0932,-7.0935,-7.0937,0,-7.0196,-7.0279,-7.0315,-7.0361,-7.0384,-7.0459,-7.0503,-7.0481,-7.0528,-7.0578,-7.064,-7.0714,-7.0771,-7.0898,-7.0904,-7.097,-7.0949,-7.1061,-7.0958,-7.0962,-7.0945,-7.0938,-7.0945,-7.1079,-7.1082,-7.1085,-7.1087,0,-7.0453,-7.0446,-7.0511,-7.0576,-7.0629,-7.0679,-7.0723,-7.0763,-7.0745,-7.0801,-7.088,-7.0925,-7.1013,-7.1086,-7.1148,-7.1166,-7.1123,-7.112,-7.1145,-7.115,-7.1149,-7.1147,-7.0818,-7.1111,-7.1109,-7.1107,-7.1106,-7.1105,-7.0639,-7.0708,-7.0745,-7.0819,-7.085,-7.0893,-7.0958,-7.0967,-7.1033,-7.1103,-7.1087,-7.1176,-7.1212,-7.1291,-7.1316,-7.1385,-7.1343,-7.1381,-7.1389,-7.1398,-7.1407,-7.1143,-7.1397,-7.1396,-7.1395,-7.1395,-7.1394,0,-7.0889,-7.091,-7.0979,-7.1043,-7.1101,-7.1058,-7.1105,-7.1156,-7.1235,-7.1274,-7.1331,-7.1422,-7.1493,-7.1506,-7.1573,-7.1626,-7.1607,-7.1644,-7.1637,-7.1641,-7.1442,-7.1412,-7.1657,-7.1657,-7.1657,-7.1657,-7.1657,-7.1657,-7.1026,-7.114,-7.1138,-7.1268,-7.1287,-7.1374,-7.1405,-7.1444,-7.1474,-7.1577,-7.1636,-7.1645,-7.1673,-7.1742,-7.1805,-7.1807,-7.1832,-7.1875,-7.1869,-7.1682,-7.1655,-7.163,-7.1601,-7.1882,-7.1882,-7.2061,-7.2063,-7.2064]},{"header":{"parameterUnit":"m.s-1","parameterCategory":1,"la1":30.2991,"la2":30.254,"lo1":-89.0895,"lo2":-89.0444,"dy":0.0017,"dx":0.0017,"nx":28,"ny":28,"refTime":"2023-09-20T03:00:00:Z","depth":0,"parameterNumber":3,"parameterNumberName":"V-component_of_WINDS"},"data":[0,0,0,0,0,0,0,0,0,0,0,0,0,0,0,0,0,0,0,0,0,0,0,0,0,0,0,0,0,0,0,0,0,0,0,0,0,0,0,0,0,0,0,0,0,0,0,0,0,0,0,0,0,0,0,0,0,0,2.2809,2.281,0,2.289,2.2891,2.2892,2.2905,2.2904,2.2903,2.2903,2.2982,2.2985,2.2988,0,0,0,0,0,0,0,0,0,0,0,0,0,2.2662,2.2665,2.2809,2.281,2.2811,2.289,2.2891,2.2892,2.2905,2.2904,2.2903,2.2902,2.2981,2.2985,2.2988,0,0,0,0,0,0,0,0,0,0,0,0,0,2.2733,2.2666,2.2808,2.2827,2.2829,2.2889,2.2891,2.2892,2.2905,2.2904,2.2903,2.2902,2.298,2.2984,2.2988,2.3035,0,0,2.3001,2.3003,0,0,0,0,0,0,0,0,2.2729,2.2738,2.2823,2.2826,2.2828,2.2886,2.2869,2.294,2.2905,2.2876,2.2903,2.2901,2.2951,2.2957,2.2975,2.3039,2.3042,2.3001,2.3004,2.3006,2.3007,0,0,0,0,0,0,0,2.2724,2.2735,2.2841,2.2824,2.2828,2.283,2.2839,2.2882,2.2918,2.2879,2.288,2.2889,2.2952,2.2971,2.2977,2.3043,2.3001,2.3005,2.3008,2.3009,2.3151,2.3152,0,0,0,0,0,0,2.2716,2.2731,2.2838,2.2843,2.2775,2.2834,2.2844,2.2869,2.2918,2.2924,2.289,2.289,2.2964,2.2972,2.298,2.3038,2.3006,2.301,2.3012,2.3149,2.3151,2.3152,0,0,0,0,0,0,2.2713,2.2726,2.2835,2.2787,2.2801,2.2837,2.2865,2.2871,2.2889,2.2927,2.2933,2.2903,2.2964,2.2974,2.3022,2.3041,2.3012,2.3015,2.3148,2.315,2.3152,2.3154,0,0,0,0,0,0,2.2709,2.2724,2.2743,2.2788,2.2804,2.2876,2.2867,2.2873,2.2897,2.2897,2.294,2.2946,2.2964,2.3015,2.3026,2.3046,2.3019,2.3146,2.3149,2.3151,2.3152,2.3156,2.3159,0,0,0,0,0,2.2703,2.2739,2.2744,2.2757,2.2828,2.2877,2.2886,2.2907,2.2898,2.2917,2.2941,2.2945,2.3037,2.302,2.3032,2.3054,2.3145,2.3148,2.3151,2.3151,2.3155,2.3159,0,0,0,0,0,0,2.2694,2.2745,2.2751,2.2803,2.2836,2.2879,2.2903,2.291,2.2945,2.2944,2.2967,2.2976,2.3023,2.3043,2.3023,2.3102,2.309,2.3096,2.3087,2.3091,2.3094,2.3087,2.3022,0,0,0,0,0,2.2699,2.2735,2.2778,2.2819,2.2836,2.2867,2.2889,2.2902,2.2936,2.295,2.2978,2.301,2.3047,2.307,2.3106,2.3156,2.3165,2.3177,2.318,2.3182,2.3186,2.3215,2.322,2.3162,2.3162,2.3161,0,0,2.2707,2.274,2.2761,2.2818,2.2845,2.2882,2.2878,2.2917,2.2944,2.2956,2.3003,2.3024,2.3062,2.3112,2.3135,2.313,2.3205,2.3186,2.3188,2.319,2.3218,2.3224,2.3228,2.3163,2.3163,2.3163,0,0,2.2741,2.277,2.2808,2.2836,2.2877,2.2898,2.2907,2.2951,2.2966,2.3014,2.3024,2.3056,2.3118,2.3145,2.3167,2.3214,2.3218,2.3225,2.324,2.3268,2.3273,2.3277,2.3293,2.3298,2.3229,2.3229,2.3229,0,2.2746,2.2802,2.2826,2.2865,2.2889,2.2904,2.2942,2.2968,2.3018,2.3035,2.3029,2.3109,2.3135,2.3191,2.3203,2.322,2.3231,2.3219,2.327,2.3275,2.3279,2.3294,2.3301,2.3229,2.3229,2.3229,2.3229,0,2.2806,2.2845,2.2871,2.2921,2.2949,2.2987,2.3016,2.3041,2.3053,2.3074,2.3123,2.3156,2.3199,2.3213,2.3224,2.3271,2.3267,2.3266,2.3254,2.3285,2.33,2.3306,2.323,2.323,2.323,2.323,0,0,2.2834,2.2899,2.2908,2.2931,2.298,2.301,2.3049,2.3092,2.3114,2.3149,2.3182,2.3235,2.3235,2.326,2.3274,2.3298,2.3333,2.3294,2.3295,2.3299,2.3387,2.3386,2.3393,2.3337,2.3338,2.3339,2.3383,0,2.2874,2.2945,2.2968,2.3027,2.3064,2.3079,2.3113,2.3146,2.3167,2.3201,2.3224,2.3262,2.3258,2.3274,2.3298,2.3323,2.335,2.3321,2.3367,2.3368,2.3356,2.3401,2.3401,2.3441,2.3389,2.339,2.3391,0,2.2928,2.2966,2.3029,2.3074,2.309,2.312,2.3162,2.3195,2.3232,2.3246,2.3275,2.3288,2.3329,2.3317,2.3374,2.3353,2.3374,2.3389,2.3391,2.3395,2.338,2.3405,2.3454,2.3459,2.3401,2.34,2.3399,0,2.2942,2.3009,2.3055,2.3075,2.3128,2.3149,2.3172,2.3209,2.3234,2.3271,2.3287,2.3328,2.335,2.3381,2.3404,2.3393,2.3459,2.3449,2.3471,2.347,2.3482,2.3481,2.3534,2.3498,2.3498,2.3498,2.3497,0,2.2983,2.3021,2.3062,2.3091,2.3134,2.316,2.3201,2.3225,2.3258,2.3291,2.3307,2.3337,2.3367,2.3401,2.342,2.3464,2.3474,2.3485,2.349,2.3483,2.3482,2.3496,2.3493,2.3499,2.3499,2.3498,2.3498,0,2.3005,2.3034,2.3086,2.3133,2.3146,2.3175,2.3215,2.3243,2.3266,2.3308,2.3319,2.3354,2.3396,2.3423,2.3475,2.3487,2.3535,2.3539,2.3523,2.3524,2.3545,2.3542,2.3608,2.3617,2.3575,2.3576,2.3576,0,2.3028,2.3058,2.3109,2.3133,2.3156,2.3194,2.322,2.3248,2.3274,2.332,2.3343,2.3386,2.3421,2.3486,2.3516,2.3556,2.3561,2.3581,2.3567,2.356,2.356,2.3558,2.3561,2.3583,2.3583,2.3583,2.3584,0,2.3066,2.308,2.3117,2.3161,2.3192,2.3227,2.3261,2.328,2.3313,2.3342,2.3385,2.3413,2.3468,2.351,2.3553,2.3576,2.3585,2.3588,2.3595,2.3588,2.3577,2.3583,2.3528,2.3586,2.3586,2.3586,2.3586,2.3585,2.3089,2.3117,2.3157,2.3198,2.3228,2.3261,2.329,2.3317,2.3354,2.3401,2.3415,2.346,2.3498,2.3558,2.3582,2.3617,2.3614,2.3625,2.3627,2.3629,2.3629,2.3573,2.3625,2.3625,2.3625,2.3625,2.3625,0,2.3128,2.3155,2.3193,2.3242,2.3275,2.3283,2.3322,2.3349,2.3388,2.3424,2.3459,2.3509,2.355,2.3584,2.3627,2.3648,2.3654,2.3658,2.3656,2.3662,2.3629,2.3618,2.3654,2.3654,2.3653,2.3653,2.3653,2.3653,2.3152,2.3198,2.3217,2.3278,2.3305,2.335,2.3372,2.3402,2.3431,2.3486,2.3521,2.3544,2.3578,2.3624,2.3662,2.3671,2.3685,2.3689,2.3699,2.3667,2.3664,2.3661,2.3651,2.3692,2.3692,2.3729,2.3729,2.3729]}]]